Skip Page Navigation
NASA JPL Caltech
NASA Logo - Jet Propulsion Laboratory + View the NASA Portal
+ Near-Earth Object (NEO) Program
Search JPL
JPL Home Earth Solar System Stars & Galaxies Technology
JPL Solar System Dynamics
BODIES ORBITS EPHEMERIDES TOOLS PHYSICAL DATA DISCOVERY FAQ SITE MAP
JPL Small-Body Database Browser
Search: [ help ]  
12159 Bettybiegel (1142 T-2)
Classification: Main-belt Asteroid          SPK-ID: 2012159
Ephemeris | Orbit Diagram | Orbital Elements | Physical Parameters | Discovery Circumstances ]

[ show orbit diagram ]
Orbital Elements at Epoch 2456400.5 (2013-Apr-18.0) TDB
Reference: JPL 1 (heliocentric ecliptic J2000)
 Element Value Uncertainty (1-sigma)   Units 
e .148289802896869 6.2013e-08  
a 2.412301798646941 1.7192e-08 AU
q 2.054582040397824 1.4999e-07 AU
i 1.346864821324858 5.7728e-06 deg
node 273.9460370660068 0.00027836 deg
peri 274.0787824878208 0.00027909 deg
M 17.7163865640207 2.0148e-05 deg
tp 2456333.152956540166
(2013-Feb-09.65295654)
7.6526e-05 JED
period 1368.503422406575
3.75
1.463e-05
4.005e-08
d
yr
n .2630610885626605 2.8122e-09 deg/d
Q 2.770021556896059 1.9741e-08 AU
  Orbit Determination Parameters
   # obs. used (total)      896  
   data-arc span      14458 days (39.58 yr)  
   first obs. used      1973-09-19  
   last obs. used      2013-04-20  
   planetary ephem.      DE405  
   SB-pert. ephem.      SB405-CPV-2  
   condition code      0  
   fit RMS      .55952  
   data source      ORB  
   producer      Otto Matic  
   solution date      2013-Apr-29 13:47:28  

Additional Information
 Earth MOID = 1.0561 AU 
 T_jup = 3.503 
[ show covariance matrix ]

Ephemeris | Orbit Diagram | Orbital Elements | Physical Parameters | Discovery Circumstances ]

Physical Parameter Table
Parameter Symbol Value Units Sigma Reference Notes
absolute magnitude H 14.4 mag n/a PDS3 (MPC 36317)  

12159 Bettybiegel           Discovered 1973 Sept. 29 by C. J. van Houten and I. van Houten-Groeneveld on Palomar Schmidt plates taken by T. Gehrels.
Rebekka A. "Betty" Biegel (1886-1943) studied astronomy in Leiden, obtained her doctorate in Zürich, pursued psychology in Utrecht and developed psychological instruments for testing people. She commited suicide by cyanide rather than allow herself to be transported to Auschwitz. The name was suggested by W. R. Dick.
NOTE: some special characters may not display properly (any characters within {} are an attempt to place the proper accent above a character)
Reference: 20100527/MPCPages.arcLast Updated: 2010-12-06

Alternate Designations
 1142 T-2 = 1991 NC4 = 1998 GP10 
Ephemeris | Orbit Diagram | Orbital Elements | Physical Parameters | Discovery Circumstances ]
ABOUT SSD CREDITS/AWARDS PRIVACY/COPYRIGHT GLOSSARY LINKS
FirstGov 2013-May-24 22:09 UT
(server date/time)  
NASA Home Page
Site Manager:   Donald K. Yeomans
Webmaster  Alan B. Chamberlin